{"data":{"norad_id":46048,"intl_designator":"2020-055X","name":"STARLINK-1527","alt_names":[],"object_type":"PAYLOAD","status":"ACTIVE","operator":null,"country":"US","launch_date":"2020-08-07","launch_site_code":"AFETR","launch_vehicle":null,"mission":null,"orbit_class":"UNKNOWN","rcs_meters":null,"size_class":null,"mass_kg":null,"dimensions":null,"purposes":["comms"],"wikipedia_slug":null,"has_3d_model":false,"image_url":null,"decayed_at":null,"tle_current":{"epoch":"2026-05-25T02:33:33.666624Z","epoch_age_seconds":61802,"freshness":"FRESH","line1":"1 46048U 20055X   26145.10663966  .00003202  00000+0  11493-3 0  9996","line2":"2 46048  53.1595 118.5839 0001503  77.9370 282.1799 15.31692266320744","mean_motion":15.31692266,"eccentricity":0.0001503,"inclination_deg":53.1595,"raan_deg":118.5839,"arg_perigee_deg":77.937,"mean_anomaly_deg":282.1799,"bstar":0.00011493,"rev_number":32074,"period_min":94.01366266349,"perigee_km":469.7336602967,"apogee_km":471.79243965172,"semimajor_km":6848.9000499742,"source":"CELESTRAK","updated_at":"2026-05-25T13:38:16.460903Z"}}}